EHI
0 0 0 0 0 0 0 0 0 0 0 0 0 0 0 0 0 0 0 0 0 0 0 0 0 0 0 0 0 0 0 0 0 0 0 0 0 0 0 0 0 0 0 0
0 0 0 0 0 0 0 0 0 0 0 0 0 0 0 0 0 0 0 0 0 0 0 0 0 0 0 0 0 0 0 0 0 0 0 0 0 0 0 0 0 0 0 0
0 0 0 0 0 0 0 0 0 0 0 0 0 0 0 0 0 0 0 0 0 0 0 0 0 0 0 0 0 0 0 0 0 0 0 0 0 0 0 0 0 0 0 0
0 0 0 0 0 0 0 0 0 0 0 0 0 0 0 0 0 0 0 0 0 0 0 0 0 0 0 0 0 0 0 0 0 0 0 0 0 0 0 0 0 0 0 0
0 0 0 0 0 0 0 0 0 0 0 0 0 0 0 0 0 0 0 0 0 0 0 0 0 0 0 0 0 0 0 0 0 0 0 0 0 0 0 0 0 0 0 0
0 0 0 0 0 0 0 0 0 0 0 0 0 0 0 0 0 0 0 0 0 0 0 0 0 0 0 0 0 0 0 0 0 0 0 0 0 0 0 0 0 0 0 0
0 0 0 0 0 0 0 0 0 0 0 0 0 0 0 0 0 0 0 0 0 0 0 0 0 0 0 0 0 0 0 0 0 0 0 0 0 0 0 0 0 0 0 0
0 0 0 0 0 0 0 0 0 0 0 0 0 0 0 0 0 0 0 0 0 0 0 0 0 0 0 0 0 0 0 0 0 0 0 0 0 0 0 0 0 0 0 0
0 0 0 0 0 0 0 0 0 0 0 0 0 0 0 0 0 0 0 0 0 0 0 0 0 0 0 0 0 0 0 0 0 0 0 0 0 0 0 0 0 0 0 0
0 0 0 0 0 0 0 0 0 0 0 0 0 0 0 0 0 0 0 0 0 0 0 0 0 0 0 0 0 0 0 0 0 0 0 0 0 0 0 0 0 0 0 0
0 0 0 0 0 0 0 0 0 0 0 0 0 0 0 0 0 0 0 0 0 0 0 0 0 0 0 0 0 0 0 0 0 0 0 0 0 0 0 0 0 0 0 0
0 0 0 0 0 0 0 0 0 0 0 0 0 0 0 0 0 0 0 0 0 0 0 0 0 0 0 0 0 0 0 0 0 0 0 0 0 0 0 0 0 0 0 0
0 0 0 0 0 0 0 0 0 0 0 0 0 0 0 0 0 0 0 0 0 0 0 0 0 0 0 0 0 0 0 0 0 0 0 0 0 0 0 0 0 0 0 0
0 0 0 0 0 0 0 0 0 0 0 0 0 0 0 0 0 0 0 0 0 0 0 0 0 0 0 0 0 0 0 0 0 0 0 0 0 0 0 0 0 0 0 0
0 0 0 0 0 0 0 0 0 0 0 0 0 0 0 0 0 0 0 0 0 0 0 0 0 0 0 0 0 0 0 0 0 0 0 0 0 0 0 0 0 0 0 0
0 0 0 0 0 0 0 0 0 0 0 0 0 0 0 0 0 0 0 0 0 0 0 0 0 0 0 0 0 0 0 0 0 0 0 0 0 0 0 0 0 0 0 0
0 0 0 0 0 0 0 0 0 0 0 0 0 0 0 0 0 0 0 0 0 0 0 0 0 0 0 0 0 0 0 0 0 0 0 0 0 0 0 0 0 0 0 0
0 0 0 0 0 0 0 0 0 0 0 0 0 0 0 0 0 0 0 0 0 0 0 0 0 0 0 0 0 0 0 0 0 0 0 0 0 0 0 0 0 0 0 0
0 0 0 0 0 0 0 0 0 0 0 0 0 0 0 0 0 0 0 0 0 0 0 0 0 0 0 0 0 0 0 0 0 0 0 0 0 0 0 0 0 0 0 0
0 0 0 0 0 0 0 0 0 0 0 0 0 0 0 0 0 0 0 0 0 0 0 0 0 0 0 0 0 0 0 0 0 0 0 0 0 0 0 0 0 0 0 0
0 0 0 0 0 0 0 0 0 0 0 0 0 0 0 0 0 0 0 0 0 0 0 0 0 0 0 0 0 0 0 0 0 0 0 0 0 0 0 0 0 0 0 0
0 0 0 0 0 0 0 0 0 0 0 0 0 0 0 0 0 0 0 0 0 0 0 0 0 0 0 0 0 0 0 0 0 0 0 0 0 0 0 0 0 0 0 0
0 0 0 0 0 0 0 0 0 0 0 0 0 0 0 0 0 0 0 0 0 0 0 0 0 0 0 0 0 0 0 0 0 0 0 0 0 0 0 0 0 0 0 0
0 0 0 0 0 0 0 0 0 0 0 0 0 0 0 0 0 0 0 0 0 0 0 0 0 0 0 0 0 0 0 0 0 0 0 0 0 0 0 0 0 0 0 0
0 0 0 0 0 0 0 0 0 0 0 0 0 0 0 0 0 0 0 0 0 0 0 0 0 0 0 0 0 0 0 0 0 0 0 0 0 0 0 0 0 0 0 0
0 0 0 0 0 0 0 0 0 0 0 0 0 0 0 0 0 0 0 0 0 0 0 0 0 0 0 0 0 0 0 0 0 0 0 0 0 0 0 0 0 0 0 0
Wind_Speed
4 5 2 2 3 4 4 4 2 1 0 3 3 3 3 4 4 5 4 5 5 5 3 3 3 4 4 3 4 4 4 4 3 2 2 2 2 2 3 3 4 4 4 4
5 2 1 3 4 5 4 4 2 2 2 3 3 1 3 4 5 6 7 7 7 5 3 4 3 3 4 4 4 3 4 4 3 2 2 2 2 1 1 2 4 5 4 4
3 1 2 5 5 5 2 3 3 2 2 4 3 1 2 3 3 4 5 5 6 8 8 6 5 4 4 4 5 4 4 3 3 3 3 3 3 3 3 3 3 4 4 4
2 1 3 4 3 3 1 2 4 4 3 1 1 1 4 4 4 6 7 6 7 7 7 6 6 6 5 5 4 4 4 3 3 4 4 4 2 1 0 0 1 2 3 3
1 2 3 2 2 3 2 3 4 4 3 2 1 1 6 2 6 9 9 9 8 8 8 8 8 7 5 5 4 4 3 3 3 3 4 4 3 1 0 1 2 2 3 3
0 1 1 2 2 3 5 5 5 4 3 1 2 2 6 5 9 8 10 10 9 8 8 7 6 5 4 4 4 4 4 3 3 3 3 4 4 3 2 1 1 1 2 2
3 2 1 2 5 3 4 5 3 3 2 3 1 3 9 7 7 10 12 12 10 9 9 8 7 7 6 6 5 5 5 3 3 3 3 4 4 4 4 3 2 1 0 1
1 2 2 2 4 4 3 4 4 2 2 3 1 5 8 5 4 6 8 9 9 9 9 9 9 8 8 7 6 6 6 4 4 4 4 3 4 3 2 3 2 2 1 1
4 2 1 1 2 7 5 2 3 4 1 1 4 6 8 2 1 2 5 7 9 10 10 10 8 8 8 7 7 7 7 5 4 4 4 3 3 3 3 3 2 2 1 1
6 2 1 1 4 3 4 6 4 3 2 2 4 4 4 4 2 2 4 7 8 8 8 8 8 8 7 7 6 6 6 6 5 4 4 4 3 3 3 3 3 2 2 2
4 4 1 1 2 4 3 3 4 3 2 2 2 6 5 5 4 5 7 7 8 9 9 8 7 7 6 5 5 5 5 5 4 5 4 4 3 3 3 3 3 3 2 3
4 5 1 3 3 3 3 4 6 3 2 3 2 8 5 3 3 5 5 5 6 7 7 7 7 6 6 6 6 6 5 5 5 4 4 4 4 4 4 3 3 3 3 3
6 6 3 4 4 0 1 3 4 4 4 3 2 7 4 2 1 2 4 5 5 6 6 5 6 7 7 7 6 6 5 5 4 4 4 4 4 4 4 3 3 3 3 3
7 5 6 6 6 4 3 4 5 5 3 3 6 7 7 4 2 2 3 4 5 6 6 6 6 6 6 7 6 6 6 5 5 5 5 5 5 5 4 4 3 3 3 4
5 3 4 4 4 3 4 5 6 6 6 6 6 5 8 5 4 4 4 4 5 5 6 7 7 7 6 6 6 6 5 5 6 5 5 5 4 4 3 3 3 3 3 4
4 4 2 2 1 2 3 5 6 6 5 5 4 7 7 3 2 3 4 6 6 6 7 7 7 7 7 7 6 6 6 6 6 6 6 4 4 4 4 4 3 3 3 3
4 5 3 2 3 1 4 5 7 5 5 7 7 8 3 1 3 5 6 6 7 7 7 7 8 8 8 8 7 7 7 6 6 6 5 5 5 5 5 4 4 4 3 3
7 6 4 1 2 3 8 3 5 5 4 6 6 5 4 4 3 2 4 6 6 6 6 7 7 7 6 6 6 6 5 6 6 6 5 5 5 5 5 4 4 4 3 3
5 7 5 4 2 5 7 3 4 4 4 5 6 4 2 2 2 2 2 5 6 6 5 6 6 6 5 6 6 6 6 5 6 6 6 6 6 6 5 5 5 4 3 3
5 5 6 4 3 5 8 3 2 4 4 4 5 5 4 5 2 4 2 3 3 3 3 3 4 4 5 5 6 7 6 6 7 7 7 6 6 7 7 6 5 3 3 4
3 3 4 5 4 8 8 3 4 4 8 4 5 6 7 6 5 3 2 2 3 3 3 4 5 4 5 5 7 7 6 7 7 5 5 5 6 6 6 5 4 4 3 3
7 6 5 5 4 9 4 4 7 8 3 3 4 5 6 4 2 2 2 2 3 3 3 4 4 3 3 5 7 6 6 5 4 5 5 5 5 5 4 5 4 4 4 4
7 9 8 9 8 6 3 5 4 3 3 3 4 4 5 4 2 2 2 2 2 2 3 3 4 3 3 4 6 7 5 4 5 5 5 4 4 4 4 5 5 3 3 3
4 3 4 3 6 5 4 4 3 3 3 2 3 4 5 5 3 3 2 2 2 2 2 3 4 3 2 3 4 4 3 5 6 5 4 4 4 3 3 3 4 4 4 4
5 5 3 4 5 4 4 3 2 1 2 3 3 3 5 5 4 3 3 2 2 2 2 3 3 3 2 2 2 2 4 6 5 5 4 4 3 4 3 3 3 5 5 6
6 8 8 7 7 6 5 3 2 3 3 4 4 3 3 4 4 3 3 2 2 2 2 2 2 2 2 2 2 2 4 5 6 4 4 3 3 3 3 2 1 2 3 5
Wind_Direction
38 65 93 166 142 136 129 114 96 40 116 115 133 162 195 180 169 178 178 179 189 199 194 164 155 144 135 131 127 133 128 125 116 96 85 73 46 21 25 28 32 36 42 46
50 47 211 131 114 107 106 110 101 44 34 107 129 180 207 199 196 194 191 193 195 188 173 170 167 161 159 155 147 144 149 149 143 117 115 114 107 62 36 16 30 28 37 42
110 205 124 113 116 111 102 147 154 142 63 53 80 332 218 222 199 201 204 198 193 189 184 183 179 182 171 171 172 166 167 161 148 125 105 80 56 38 26 16 13 8 29 45
77 119 122 114 120 124 116 170 141 126 102 35 91 264 258 211 207 211 211 203 200 196 186 183 182 184 186 189 174 163 162 160 152 143 137 133 126 117 307 334 4 13 29 44
32 140 127 131 164 127 143 112 106 102 96 57 29 199 277 193 217 222 213 208 203 194 186 188 190 189 187 178 167 162 151 153 156 153 149 134 125 133 102 50 49 28 20 31
66 148 150 142 88 112 120 82 63 52 63 351 218 187 272 217 214 214 207 205 202 193 188 190 186 174 174 166 160 158 154 161 162 156 153 152 152 152 134 107 73 26 13 18
15 9 28 117 92 67 91 91 54 13 10 266 217 212 254 240 217 206 201 201 196 189 184 184 180 178 180 176 173 170 165 177 177 169 170 170 165 166 171 173 160 143 51 14
93 311 239 168 155 154 142 129 149 181 235 287 280 246 259 261 236 213 199 191 185 186 187 189 189 186 185 182 179 177 179 186 184 181 184 177 169 169 180 181 169 170 182 200
161 249 293 178 147 134 137 170 169 135 166 290 282 282 299 316 345 186 176 174 184 188 188 190 188 186 185 184 189 187 185 187 189 186 177 177 175 176 183 178 167 171 183 177
148 153 287 140 87 53 139 144 106 111 141 297 305 290 274 292 282 190 180 186 190 184 183 185 184 186 189 187 188 187 185 188 186 181 181 181 185 184 177 164 167 172 177 157
130 131 346 67 176 174 124 115 115 118 156 156 301 285 243 246 233 201 199 192 184 180 183 184 184 183 179 175 178 186 187 182 180 183 184 177 184 177 168 170 178 178 173 161
137 117 177 255 254 179 169 169 151 150 209 176 192 272 286 268 236 195 194 188 182 181 181 178 174 166 168 178 186 191 187 187 188 181 178 183 177 167 170 179 186 179 174 169
138 113 80 357 348 23 191 179 159 132 121 155 189 271 308 356 52 182 179 176 174 170 169 165 166 174 179 186 190 190 190 192 183 171 171 174 174 176 184 188 181 176 172 167
119 121 158 190 220 199 211 192 166 141 157 207 228 259 300 314 291 223 186 173 168 170 171 171 177 183 187 191 191 190 192 182 172 169 171 178 186 189 187 179 173 171 164 161
114 150 203 224 228 193 214 209 184 186 192 199 237 244 264 263 240 215 181 162 157 170 179 185 187 190 191 192 192 190 189 179 172 169 177 191 187 176 165 164 167 162 161 166
114 146 159 287 250 212 240 232 202 209 205 215 249 269 258 257 195 175 171 169 179 193 196 194 192 191 193 195 194 190 188 182 172 178 189 183 167 163 168 170 161 158 163 158
139 133 129 266 310 46 278 234 197 202 203 185 213 239 259 231 205 200 189 184 194 199 199 194 194 197 199 197 190 190 188 173 173 182 181 173 170 170 176 169 158 167 173 163
140 129 132 144 67 239 248 252 191 195 230 212 223 238 227 215 213 202 185 187 199 198 192 194 195 198 198 188 185 178 163 166 175 179 179 176 173 173 168 160 170 179 170 171
139 134 125 130 186 277 292 263 177 176 258 217 209 232 209 143 86 338 217 191 197 198 193 193 190 185 179 177 172 158 160 166 174 184 189 187 180 175 169 175 185 182 170 178
75 105 120 133 163 233 251 254 173 122 278 243 191 195 172 131 114 261 239 187 188 177 172 168 157 148 158 170 158 157 167 175 194 199 195 188 182 180 183 187 182 172 172 186
98 92 135 161 202 254 252 247 126 156 239 229 183 180 168 181 195 210 171 155 158 155 152 147 144 156 172 161 154 165 176 200 207 191 177 176 181 185 184 179 173 166 164 162
168 161 177 153 187 251 246 149 177 212 221 181 178 174 174 183 164 141 132 126 122 120 121 137 144 159 158 154 159 173 200 208 172 160 166 176 179 181 175 168 171 165 162 166
189 186 182 185 208 235 228 215 236 200 193 197 181 178 158 150 150 142 135 128 120 120 127 137 143 144 145 163 170 186 205 163 151 156 171 176 171 176 168 167 170 166 169 177
243 156 147 224 260 256 256 249 254 206 202 190 166 153 148 147 145 138 134 128 121 115 128 131 129 136 162 181 183 188 164 151 152 164 173 169 167 172 170 171 174 176 183 191
204 161 164 231 264 289 280 237 227 182 146 122 115 136 149 139 140 148 146 148 148 135 131 134 144 159 181 177 182 169 153 152 156 163 166 167 170 171 177 185 196 197 205 200
193 175 173 214 218 197 234 239 183 156 160 151 132 116 119 138 147 138 144 154 150 146 136 129 138 154 168 160 172 174 166 160 156 158 166 170 170 172 174 177 217 245 231 228